This demonstration page uses our WeatherBlox Daily Observations layout. Learn more.

Left ArrowRight Arrow

40.92945, -100.16068

Hourly Observations for July 14, 2020

Temp ( °F °C ) Dew Point ( °F °C ) Humidity (%) Winds ( mph kmh ) Pressure ( in mb ) Visibility ( mi km ) Precip ( " mm )
12:15 am 00:15 Partly Cloudy 73 22.5 62 16.9 71 71 SSE 28 44 29.64 1004 10 16.0934 0 0
12:35 am 00:35 Partly Cloudy 75 23.9 60 15.8 61 61 SSE 38 61 29.6 1002 10 16.0934 0 0
12:55 am 00:55 Clear 74 23.6 62 16.6 65 65 S 14 22 29.64 1004 10 16.0934 0 0
1:15 am 01:15 Clear 74 23.1 61 16.3 66 66 W 12 19 29.69 1005 10 16.0934 0 0
1:35 am 01:35 Clear 73 22.8 62 16.9 69 69 S 12 19 29.68 1005 10 16.0934 0 0
1:55 am 01:55 Clear 71 21.7 64 17.5 77 77 W 5 7 29.71 1006 10 16.0934 0 0
2:15 am 02:15 Clear 72 22.3 63 17.4 74 74 Calm 29.71 1006 10 16.0934 0 0
2:35 am 02:35 Clear 68 20.1 64 18 88 88 N 3 6 29.73 1007 10 16.0934 0 0
2:55 am 02:55 Clear 69 20.3 64 17.8 86 86 Calm 29.74 1007 10 16.0934 0 0
3:15 am 03:15 Clear 69 20.7 62 16.8 78 78 WSW 5 7 29.74 1007 10 16.0934 0 0
3:35 am 03:35 Clear 67 19.5 64 17.5 88 88 NW 5 7 29.75 1007 10 16.0934 0 0
3:55 am 03:55 Clear 69 20.6 62 16.6 78 78 SSE 6 9 29.74 1007 10 16.0934 0 0
4:15 am 04:15 Clear 68 20 62 16.7 81 81 ENE 6 9 29.73 1007 10 16.0934 0 0
4:35 am 04:35 Clear 67 19.5 63 17 86 86 Calm 29.74 1007 10 16.0934 0 0
4:55 am 04:55 Clear 66 19.1 63 17 88 88 Calm 29.74 1007 10 16.0934 0 0
5:15 am 05:15 Clear 65 18.2 62 16.9 92 92 Calm 29.76 1008 10 16.0934 0 0
5:35 am 05:35 Clear 64 17.7 62 16.6 93 93 Calm 29.76 1008 10 16.0934 0 0
5:55 am 05:55 Clear 63 17.2 62 16.5 96 96 NNW 6 9 29.79 1009 10 16.0934 0 0
6:15 am 06:15 Clear 64 17.5 62 16.6 95 95 NNW 8 13 29.81 1010 10 16.0934 0 0
6:35 am 06:35 Sunny 64 17.5 62 16.5 94 94 N 6 9 29.83 1010 10 16.0934 0 0
6:55 am 06:55 Sunny 64 17.5 62 16.5 94 94 WSW 3 6 29.84 1011 10 16.0934 0 0
7:15 am 07:15 Sunny 65 18.5 63 17.1 92 92 N 3 6 29.85 1011 10 16.0934 0 0
7:35 am 07:35 Sunny 67 19.2 63 17.3 89 89 NNE 5 7 29.84 1010 10 16.0934 0 0
7:55 am 07:55 Sunny 68 19.8 64 17.8 88 88 N 6 9 29.84 1011 10 16.0934 0 0
8:15 am 08:15 Mostly Cloudy 69 20.8 65 18.3 86 86 N 7 11 29.84 1010 10 16.0934 0 0
8:35 am 08:35 Cloudy 70 21 66 18.8 87 87 NNE 6 9 29.84 1011 10 16.0934 0 0
8:55 am 08:55 Cloudy 70 21.1 66 18.8 87 87 NNE 9 15 29.84 1011 10 16.0934 0 0
9:15 am 09:15 Cloudy 71 21.6 67 19.4 87 87 NNE 8 13 29.85 1011 10 16.0934 0 0
9:35 am 09:35 Cloudy 71 21.5 67 19.4 88 88 NNE 14 22 29.86 1011 10 16.0934 0 0
9:55 am 09:55 Cloudy 69 20.3 65 18.1 87 87 NNE 21 33 29.87 1011 10 16.0934 0 0
10:15 am 10:15 Cloudy 67 19.7 63 17.2 86 86 NNE 16 26 29.88 1012 10 16.0934 0 0
10:35 am 10:35 Cloudy 68 19.9 62 16.6 81 81 NNE 17 28 29.88 1012 7 11.26538 0 0
10:55 am 10:55 Cloudy 66 19 60 15.6 81 81 NNE 18 30 29.91 1013 10 16.0934 0.03 0.762
11:15 am 11:15 Cloudy 67 19.6 60 15.4 77 77 NNE 18 30 29.91 1013 10 16.0934 0 0
11:35 am 11:35 Cloudy 69 20.3 60 15.5 74 74 NE 16 26 29.9 1013 10 16.0934 0 0
11:55 am 11:55 Cloudy 69 20.4 59 15.1 72 72 NE 17 28 29.9 1012 10 16.0934 0 0
12:15 pm 12:15 Cloudy 71 21.5 60 15.4 68 68 NNE 16 26 29.89 1012 10 16.0934 0 0
12:35 pm 12:35 Cloudy 71 21.4 60 15.3 68 68 NNE 15 24 29.9 1013 10 16.0934 0 0
12:55 pm 12:55 Cloudy 72 22.1 61 16 68 68 NE 17 28 29.89 1012 10 16.0934 0 0
1:15 pm 13:15 Cloudy 71 21.5 60 15.6 69 69 NNE 17 28 29.9 1013 10 16.0934 0 0
1:35 pm 13:35 Cloudy 72 22 60 15.7 68 68 NNE 14 22 29.9 1012 10 16.0934 0 0
1:55 pm 13:55 Cloudy 73 22.6 61 15.9 66 66 NE 16 26 29.89 1012 10 16.0934 0 0
2:15 pm 14:15 Cloudy 73 22.8 61 15.9 65 65 NE 14 22 29.89 1012 10 16.0934 0 0
2:35 pm 14:35 Cloudy 72 22 60 15.7 68 68 NE 13 20 29.91 1013 10 16.0934 0 0
2:55 pm 14:55 Cloudy 72 22.2 60 15.8 67 67 NE 13 20 29.91 1013 10 16.0934 0 0
3:15 pm 15:15 Cloudy 72 22.1 61 15.9 68 68 NNE 12 19 29.91 1013 10 16.0934 0 0
3:35 pm 15:35 Cloudy 72 22 60 15.8 68 68 NE 12 19 29.91 1013 10 16.0934 0 0
3:55 pm 15:55 Partly Cloudy 72 22.2 61 16 68 68 NE 12 19 29.9 1013 10 16.0934 0 0
4:15 pm 16:15 Sunny 73 22.9 60 15.8 64 64 ENE 16 26 29.88 1012 10 16.0934 0 0
4:35 pm 16:35 Sunny 71 21.6 61 15.9 70 70 NE 10 17 29.91 1013 10 16.0934 0 0
4:55 pm 16:55 Mostly Cloudy 72 22.2 61 16 68 68 NNE 9 15 29.92 1013 10 16.0934 0 0
5:15 pm 17:15 Cloudy 73 23 61 15.9 64 64 NE 10 17 29.91 1013 10 16.0934 0 0
5:35 pm 17:35 Mostly Cloudy 72 22.3 60 15.6 66 66 ENE 12 19 29.9 1013 10 16.0934 0 0
5:55 pm 17:55 Partly Cloudy 74 23.1 60 15.8 64 64 ENE 12 19 29.89 1012 10 16.0934 0 0
6:15 pm 18:15 Sunny 74 23.3 61 16 64 64 NE 10 17 29.88 1012 10 16.0934 0 0
6:35 pm 18:35 Sunny 73 22.6 61 16 66 66 ENE 10 17 29.9 1013 10 16.0934 0 0
6:55 pm 18:55 Sunny 73 22.6 61 16 66 66 ENE 10 17 29.9 1013 10 16.0934 0 0
7:15 pm 19:15 Sunny 73 22.7 61 15.9 66 66 ENE 10 17 29.91 1013 10 16.0934 0 0
7:35 pm 19:35 Sunny 72 22.2 60 15.8 67 67 E 9 15 29.92 1013 10 16.0934 0 0
7:55 pm 19:55 Sunny 71 21.6 61 16.1 71 71 ENE 7 11 29.93 1013 10 16.0934 0 0
8:15 pm 20:15 Sunny 70 21 62 16.5 76 76 ENE 6 9 29.92 1013 10 16.0934 0 0
8:35 pm 20:35 Sunny 69 20.7 62 16.5 77 77 NE 6 9 29.93 1013 10 16.0934 0 0
8:55 pm 20:55 Sunny 68 20 63 17 83 83 N 3 6 29.93 1014 10 16.0934 0 0
9:15 pm 21:15 Clear 67 19.3 63 17.1 87 87 NNW 3 6 29.96 1014 10 16.0934 0 0
9:35 pm 21:35 Clear 66 18.7 63 17.2 91 91 NNW 7 11 29.96 1015 10 16.0934 0 0
9:55 pm 21:55 Partly Cloudy 66 18.8 63 17.2 90 90 NNW 5 7 29.97 1015 10 16.0934 0 0
10:15 pm 22:15 Mostly Cloudy 66 19 63 17.1 89 89 N 3 6 29.98 1015 10 16.0934 0 0
10:35 pm 22:35 Cloudy 66 19.1 63 17 88 88 NNE 3 6 29.98 1015 10 16.0934 0 0
10:55 pm 22:55 Mostly Cloudy 66 18.7 63 17 90 90 NNE 3 6 29.97 1015 7 11.26538 0 0
11:15 pm 23:15 Clear 65 18.5 62 16.6 89 89 Calm 29.97 1015 10 16.0934 0 0
11:35 pm 23:35 Partly Cloudy 64 18 62 16.8 93 93 N 6 9 29.99 1016 10 16.0934 0 0
11:55 pm 23:55 Mostly Cloudy 65 18.2 62 16.6 90 90 ENE 6 9 29.98 1015 10 16.0934 0 0

Powered by AerisWeather